CAPE
0 3 2 1 1 1 0 0 0 0 0 0 0 0 0 0 0 0 0 0 0 0 0 0 0 0 0 0 0 0 0 0 0 0 0 0 0 0 0 0 0 0 0 0 0 0 0
1 0 0 2 3 2 0 2 0 0 0 0 0 0 0 0 0 0 0 0 0 0 0 0 0 0 0 0 0 0 0 0 0 0 0 0 0 0 0 0 0 0 0 0 0 0 0
0 0 0 0 0 0 2 2 2 0 0 0 0 0 0 0 1 1 0 0 0 0 0 0 0 0 0 0 0 0 0 0 0 0 0 0 0 0 0 0 0 0 0 0 0 0 0
0 0 5 2 0 0 0 0 0 2 2 1 2 2 1 0 0 0 0 0 0 0 0 0 0 0 0 0 0 0 0 0 0 0 0 0 0 0 0 0 0 0 0 0 0 0 0
2 0 4 14 10 4 0 0 0 0 0 2 0 0 0 0 0 0 0 0 0 1 0 0 0 2 0 0 0 0 0 0 0 0 0 0 0 0 0 0 0 0 0 0 0 0 0
9 12 1 0 13 13 27 3 0 0 0 0 0 0 2 2 0 0 0 0 0 0 0 0 0 0 0 0 0 0 0 0 0 0 0 0 0 0 0 0 0 0 0 0 0 0 0
27 8 6 7 6 6 4 9 3 5 0 5 0 0 0 0 0 1 0 0 0 0 0 0 0 0 4 0 0 0 0 0 0 0 0 0 0 0 0 0 0 0 0 0 0 0 0
7 8 8 1 2 5 11 12 2 0 2 26 8 0 7 0 0 0 0 0 7 0 0 0 0 0 0 8 0 0 0 0 0 0 0 0 0 0 0 0 0 0 0 0 0 0 0
0 2 0 0 1 0 0 2 13 10 7 27 21 21 13 0 0 0 2 8 2 0 0 2 0 0 0 0 6 0 0 0 0 0 0 0 0 0 0 0 0 0 0 0 0 0 0
0 0 0 0 9 1 0 0 0 3 18 36 15 8 4 4 0 0 0 21 49 0 1 0 0 0 0 7 8 2 2 0 0 0 0 0 0 0 0 0 0 0 0 0 0 0 0
0 0 0 0 0 3 1 0 0 0 3 13 6 7 39 0 32 7 11 45 42 18 0 0 0 0 0 0 0 0 0 0 0 0 0 0 0 0 0 0 0 0 0 0 0 0 0
5 0 0 0 0 0 0 3 0 0 3 9 1 1 3 30 34 15 30 49 11 0 0 0 0 0 0 0 0 0 0 0 0 9 4 0 0 0 0 0 0 0 0 0 0 0 0
5 1 0 0 0 0 0 0 6 0 0 13 7 0 2 32 11 19 41 50 6 0 0 0 0 0 0 0 0 2 0 0 0 8 3 0 0 0 0 0 0 0 0 0 0 0 0
6 7 3 0 0 0 0 0 1 6 2 14 17 4 0 0 17 18 35 20 0 0 0 0 0 0 0 0 0 0 0 0 9 12 4 0 0 0 0 0 0 0 0 0 0 0 0
6 8 13 12 6 0 0 0 0 3 11 11 11 8 5 0 0 0 13 4 0 0 0 0 0 0 0 0 0 0 0 0 0 11 3 0 1 0 9 0 0 0 0 0 0 0 0
8 6 4 9 11 8 2 0 0 0 16 13 8 10 1 0 0 0 12 3 0 0 0 0 0 0 0 0 2 16 0 0 0 0 1 0 0 0 0 0 0 0 0 0 0 0 0
7 7 10 10 4 13 7 0 0 0 5 22 7 13 0 0 6 5 0 1 0 0 0 0 0 0 0 0 0 1 0 0 0 1 0 0 0 0 0 0 0 0 0 0 0 0 0
7 0 0 0 10 15 14 12 0 0 4 29 3 1 4 0 14 15 3 0 0 0 0 0 0 1 1 0 0 9 5 0 0 5 0 4 0 0 0 0 0 0 0 0 0 0 0
1 1 5 8 0 10 3 0 5 0 7 34 1 1 61 31 4 4 7 0 0 0 0 0 6 0 0 0 0 0 0 0 0 0 0 2 0 3 0 0 0 0 0 0 0 0 0
7 15 8 2 0 1 8 4 6 2 17 7 0 0 24 31 0 3 8 0 0 0 0 0 0 5 4 4 12 9 4 0 0 0 0 0 0 6 18 9 1 0 0 0 0 0 2
31 44 34 10 11 11 20 8 5 0 23 13 0 0 1 1 3 8 4 4 8 7 0 0 0 0 0 7 10 21 20 0 0 0 0 1 0 11 6 0 0 0 0 0 0 0 0
29 57 66 37 26 16 29 44 29 9 33 32 0 0 2 8 0 0 4 6 6 0 5 0 0 2 8 12 5 0 0 0 0 0 0 6 10 1 1 3 2 0 0 0 0 0 0
21 26 62 74 73 17 68 60 39 22 19 6 1 2 1 3 8 21 1 0 0 11 34 13 3 26 23 23 74 7 0 0 1 3 0 4 14 0 1 11 1 0 0 0 0 0 1
17 31 42 51 66 40 74 94 55 42 56 3 1 10 3 0 13 2 0 0 0 7 33 49 98 38 15 91 1 7 27 7 0 0 0 0 0 6 0 0 0 0 0 0 0 0 11
22 26 22 43 40 39 62 76 52 29 52 37 0 3 2 0 0 7 0 0 0 13 72 78 6 1 108 24 1 0 0 0 0 0 0 3 0 0 0 1 0 0 2 0 0 0 0
16 11 21 38 36 41 49 97 65 71 67 52 4 0 8 4 2 0 29 13 14 0 27 33 25 12 28 31 23 0 2 0 3 1 0 10 9 10 4 6 1 0 0 0 13 0 0
13 5 17 26 25 29 58 118 90 54 52 48 25 0 3 5 1 0 0 8 13 17 6 33 19 1 2 3 2 2 5 0 0 2 1 3 20 1 3 0 0 0 0 0 0 0 0
11 0 13 15 18 20 32 66 57 24 4 23 4 12 10 0 0 0 0 9 90 44 8 7 23 1 6 10 7 2 0 0 0 0 1 0 0 0 0 2 0 0 1 0 18 23 0
5 0 17 11 8 16 8 54 8 3 6 38 3 21 48 26 17 21 50 71 126 31 84 50 7 3 41 48 12 0 0 2 0 0 1 4 0 0 0 0 0 3 97 11 5 1 0
CIN
-0 -0 -0 -0 -0 -2 -0 -0 -0 -0 -0 -0 -0 -0 -0 -0 -0 -0 -0 -0 -0 -0 -0 -0 -0 -0 -0 -0 -0 -0 -0 -0 -0 -0 -0 -0 -0 -0 -0 -0 -0 -0 -0 -0 -0 -0 -0
-0 -0 -0 -0 -0 -0 -0 -0 -0 -0 -0 -0 -0 -0 -0 -0 -0 -0 -0 -0 -0 -0 -0 -0 -0 -0 -0 -0 -0 -0 -0 -0 -0 -0 -0 -0 -0 -0 -0 -0 -0 -0 -0 -0 -0 -0 -0
-0 -0 -0 -0 -0 -0 -0 -0 -0 -0 -0 -0 -0 -0 -0 -0 -21 -22 -0 -0 -0 -0 -0 -0 -0 -0 -0 -0 -0 -0 -0 -0 -0 -0 -0 -0 -0 -0 -0 -0 -0 -0 -0 -0 -0 -0 -0
-0 -0 -0 -0 -0 -0 -0 -0 -0 -0 -0 -0 -0 -0 -0 -0 -0 -0 -0 -0 -0 -0 -0 -0 -0 -0 -0 -0 -0 -0 -0 -0 -0 -0 -0 -0 -0 -0 -0 -0 -0 -0 -0 -0 -0 -0 -0
-1 -0 -2 -1 -1 -2 -0 -0 -0 -0 -0 -0 -0 -0 -0 -0 -0 -0 -0 -0 -0 -0 -0 -0 -0 -0 -0 -0 -0 -0 -0 -0 -0 -0 -0 -0 -0 -0 -0 -0 -0 -0 -0 -0 -0 -0 -0
-0 -2 -5 -0 -2 -0 -0 -4 -0 -0 -0 -0 -0 -0 -0 -0 -0 -0 -0 -0 -0 -0 -0 -0 -0 -0 -0 -0 -0 -0 -0 -0 -0 -0 -0 -0 -0 -0 -0 -0 -0 -0 -0 -0 -0 -0 -0
-1 -1 -2 -2 -3 -5 -2 -0 -2 -4 -0 -1 -0 -0 -0 -0 -0 -0 -0 -0 -0 -0 -0 -0 -0 -0 -6 -0 -0 -0 -0 -0 -0 -0 -0 -0 -0 -0 -0 -0 -0 -0 -0 -0 -0 -0 -0
-6 -6 -4 -8 -6 -4 -1 -3 -12 -0 -1 -1 -0 -0 -5 -0 -0 -0 -1 -0 -2 -0 -0 -0 -0 -0 -0 -8 -0 -0 -0 -0 -0 -0 -0 -0 -0 -0 -0 -0 -0 -0 -0 -0 -0 -0 -0
-0 -8 -2 -6 -10 -0 -0 -3 -5 -11 -14 -2 -3 -3 -5 -0 -0 -0 -0 -15 -12 -0 -0 -1 -0 -0 -0 -1 -3 -0 -0 -0 -0 -0 -0 -0 -0 -0 -0 -0 -0 -0 -0 -0 -0 -0 -0
-0 -0 -0 -0 -6 -9 -10 -15 -0 -9 -7 -5 -19 -26 -23 -3 -0 -0 -0 -29 -8 -0 -0 -0 -0 -0 -0 -1 -1 -2 -2 -0 -0 -0 -0 -0 -0 -0 -0 -0 -0 -0 -0 -0 -0 -0 -0
-0 -0 -0 -0 -19 -19 -16 -1 -0 -0 -11 -8 -11 -16 -8 -0 -5 -1 -11 -20 -3 -9 -0 -0 -0 -0 -0 -0 -0 -0 -0 -0 -0 -0 -0 -0 -0 -0 -0 -0 -0 -0 -0 -0 -0 -0 -0
-1 -0 -0 -0 -0 -0 -21 -12 -0 -0 -7 -8 -19 -25 -17 -4 -24 -7 -7 -7 -18 -0 -0 -0 -0 -0 -0 -0 -0 -0 -0 -0 -0 -3 -4 -0 -0 -0 -0 -0 -0 -0 -0 -0 -0 -0 -0
-2 -1 -0 -0 -0 -0 -0 -15 -12 -0 -8 -5 -12 -6 -23 -3 -4 -32 -4 -7 -0 -0 -0 -0 -0 -0 -0 -0 -1 -2 -0 -0 -0 -2 -0 -0 -0 -0 -0 -0 -0 -0 -0 -0 -0 -0 -0
-1 -1 -1 -0 -0 -0 -0 -0 -43 -10 -16 -3 -8 -16 -9 -0 -29 -43 -3 -0 -0 -0 -0 -0 -0 -0 -0 -0 -0 -0 -0 -0 -1 -2 -1 -0 -0 -0 -0 -0 -0 -0 -0 -0 -0 -0 -0
-1 -0 -1 -1 -0 -0 -0 -0 -3 -22 -10 -12 -5 -5 -3 -0 -0 -0 -3 -0 -0 -0 -0 -0 -0 -0 -0 -0 -1 -0 -0 -0 -0 -33 -2 -0 -2 -1 -3 -0 -0 -0 -0 -0 -0 -0 -0
-0 -0 -1 -1 -1 -1 -0 -0 -0 -13 -7 -14 -2 -4 -1 -0 -0 -0 -8 -0 -0 -0 -0 -0 -0 -0 -0 -0 -2 -4 -9 -0 -0 -0 -22 -0 -0 -0 -0 -0 -0 -0 -0 -0 -0 -0 -0
-1 -0 -1 -1 -1 -0 -1 -0 -0 -0 -8 -6 -1 -2 -0 -0 -17 -19 -30 -3 -0 -0 -0 -0 -0 -0 -0 -0 -0 -2 -0 -0 -0 -8 -0 -6 -0 -0 -0 -0 -0 -0 -0 -0 -0 -0 -0
-2 -0 -0 -0 -0 -0 -0 -0 -0 -0 -7 -10 -0 -0 -4 -0 -2 -6 -10 -0 -0 -0 -0 -0 -0 -13 -3 -0 -0 -0 -4 -0 -0 -7 -0 -25 -0 -0 -0 -0 -0 -0 -0 -0 -0 -0 -0
-0 -0 -2 -1 -0 -1 -0 -0 -1 -0 -8 -0 -0 -0 -3 -14 -0 -16 -1 -0 -0 -0 -0 -0 -5 -0 -0 -4 -0 -0 -0 -0 -0 -0 -0 -52 -0 -33 -7 -0 -0 -0 -0 -0 -0 -0 -0
-2 -1 -1 -0 -0 -0 -0 -0 -1 -0 -69 -3 -0 -0 -6 -3 -0 -1 -0 -0 -0 -0 -0 -0 -0 -12 -6 -8 -8 -5 -3 -0 -0 -0 -0 -0 -39 -51 -16 -14 -23 -0 -0 -0 -0 -1 -0
-3 -2 -1 -2 -2 -1 -0 -1 -2 -0 -74 -5 -0 -0 -0 -0 -0 -1 -1 -1 -2 -1 -0 -0 -0 -5 -0 -2 -7 -1 -14 -0 -0 -0 -0 -89 -24 -64 -48 -35 -0 -0 -0 -1 -0 -0 -2
-1 -1 -1 -2 -4 -3 -0 -0 -2 -1 -53 -35 -0 -0 -0 -7 -1 -0 -1 -2 -9 -0 -2 -0 -0 -4 -13 -29 -37 -0 -0 -0 -0 -0 -0 -86 -41 -95 -80 -69 -22 -0 -0 -0 -0 -0 -0
-1 -3 -1 -1 -2 -3 -0 -0 -0 -1 -4 -0 -0 -0 -0 -0 -4 -21 -0 -0 -0 -3 -4 -4 -1 -3 -8 -8 -15 -1 -0 -0 -0 -61 -34 -93 -45 -20 -3 -27 -3 -0 -0 -0 -0 -0 -17
-0 -1 -3 -3 -0 -0 -0 -0 -2 -2 -0 -0 -0 -0 -0 -0 -3 -0 -0 -0 -0 -7 -13 -6 -1 -6 -10 -48 -7 -10 -21 -31 -9 -3 -0 -0 -0 -3 -0 -0 -0 -0 -0 -0 -0 -0 -51
-0 -1 -1 -1 -2 -1 -0 -1 -7 -3 -0 -0 -0 -0 -0 -0 -0 -4 -12 -0 -0 -1 -7 -9 -74 -7 -50 -30 -0 -0 -0 -0 -0 -0 -0 -0 -3 -0 -1 -1 -0 -0 -3 -0 -0 -0 -0
-0 -0 -1 -4 -2 -1 -3 -0 -0 -0 -0 -0 -9 -0 -0 -4 -4 -9 -4 -21 -27 -0 -9 -7 -17 -100 -12 -1 -2 -0 -2 -0 -1 -0 -1 -0 -4 -2 -3 -1 -1 -0 -0 -0 -4 -0 -0
-0 -1 -2 -3 -3 -3 -3 -0 -0 -0 -2 -0 -2 -0 -0 -0 -1 -0 -0 -53 -2 -6 -10 -9 -16 -0 -0 -0 -17 -3 -2 -2 -0 -2 -2 -2 -0 -0 -2 -1 -0 -0 -2 -0 -0 -0 -0
-0 -0 -2 -2 -4 -5 -7 -3 -0 -4 -7 -0 -0 -7 -0 -0 -0 -0 -0 -44 -5 -5 -27 -13 -8 -0 -1 -0 -2 -3 -0 -0 -0 -1 -3 -0 -0 -0 -0 -2 -0 -0 -6 -0 -5 -22 -0
-0 -0 -3 -2 -6 -7 -9 -0 -1 -1 -0 -1 -0 -0 -1 -0 -0 -38 -53 -75 -4 -41 -24 -5 -14 -31 -0 -1 -16 -0 -0 -3 -0 -0 -6 -9 -1 -3 -0 -0 -0 -25 -5 -30 -36 -4 -0
Wind_Speed
28 29 29 30 31 31 29 29 28 27 27 27 26 25 25 25 25 26 28 30 32 33 35 35 36 37 33 28 29 16 20 20 23 20 20 23 22 21 19 18 19 17 18 15 17 15 15
31 29 27 26 28 29 29 31 29 28 27 26 29 28 27 26 26 27 29 31 32 33 34 35 35 36 30 33 23 19 21 22 21 19 20 19 20 23 21 18 15 18 19 18 15 12 13
33 33 31 30 30 28 26 26 28 27 26 28 30 28 29 27 30 28 28 30 32 32 33 32 33 32 32 27 27 23 20 22 20 18 20 17 19 17 22 14 13 16 16 16 12 13 12
33 34 33 32 31 30 29 28 27 26 28 27 27 27 27 25 25 26 28 31 33 33 32 31 32 32 33 27 30 26 19 16 14 15 16 17 17 16 14 22 16 12 12 16 11 2 8
34 33 34 33 33 34 31 30 31 31 30 32 27 26 26 26 26 27 28 31 31 31 29 28 28 24 38 20 20 21 17 14 13 12 14 15 14 12 13 13 14 5 10 6 7 3 7
35 34 34 34 36 32 31 33 34 34 33 34 31 31 28 27 28 29 29 29 31 30 27 26 27 33 27 24 17 16 14 14 12 9 12 13 12 12 11 10 12 13 6 9 9 4 13
35 34 35 34 34 36 34 36 34 33 34 33 30 29 27 25 26 26 26 28 32 32 28 28 24 23 26 15 17 18 14 12 9 10 12 8 12 13 12 10 10 19 16 15 17 10 12
33 33 34 35 36 36 35 33 32 33 38 38 32 28 27 21 21 22 22 26 28 27 38 31 35 34 36 29 22 17 10 12 10 12 10 13 14 15 13 16 18 19 20 22 27 26 22
33 33 34 34 35 35 37 37 34 35 36 31 29 29 27 25 22 23 25 25 23 26 36 37 35 32 26 27 25 19 11 12 12 14 13 13 9 10 15 15 21 23 25 27 27 29 21
34 35 35 34 34 34 35 36 37 35 34 30 28 28 27 26 30 27 28 26 21 21 38 41 29 33 27 23 33 22 20 17 19 19 16 20 18 19 19 21 21 26 27 30 26 29 30
35 35 35 36 35 35 35 33 34 34 31 30 29 29 29 22 26 24 23 16 15 20 39 23 21 17 16 25 22 20 19 22 22 20 20 23 22 23 26 25 23 28 28 28 30 31 34
37 36 37 36 36 36 36 36 34 31 29 29 27 27 28 28 33 26 16 12 15 27 38 25 18 20 19 19 23 19 20 21 24 26 29 29 30 22 27 24 26 25 24 28 29 30 34
38 38 38 37 37 37 37 36 36 34 32 28 25 26 23 25 29 22 15 17 31 37 25 29 24 21 22 21 23 22 25 25 27 27 31 31 29 28 23 25 21 22 23 29 29 28 32
37 39 40 40 39 38 38 37 36 35 33 29 27 25 25 27 25 26 18 28 41 38 37 23 25 24 26 21 22 24 26 26 23 24 27 30 35 26 20 25 24 24 22 27 32 31 34
36 36 37 39 40 40 39 37 37 35 33 31 28 29 30 28 25 21 27 41 43 37 34 32 26 29 30 28 25 25 29 31 25 27 28 27 32 24 26 20 19 23 26 26 35 35 34
38 38 39 38 39 40 40 40 38 36 34 30 30 32 36 29 25 26 33 43 45 42 41 37 39 33 33 27 26 28 27 27 32 25 23 30 34 22 19 19 18 23 20 25 24 30 33
39 39 40 40 40 40 41 41 40 38 36 30 30 34 31 24 24 34 40 41 43 39 35 39 40 43 36 34 32 32 28 29 23 23 20 25 28 25 19 23 20 21 24 22 23 27 33
40 40 41 41 40 40 40 42 42 39 34 31 32 40 26 20 35 37 41 38 35 34 34 31 30 32 32 35 36 35 35 34 24 22 25 21 25 30 27 21 21 19 22 23 29 30 30
40 40 41 42 43 43 43 43 44 42 36 31 34 35 24 25 44 42 41 42 39 36 36 30 33 32 31 34 36 35 30 20 21 19 22 19 26 30 28 24 23 25 24 24 25 28 35
37 39 40 41 42 43 44 43 43 43 42 36 30 35 33 32 36 40 40 46 44 40 38 37 37 37 35 36 33 31 29 19 18 20 18 18 25 30 35 30 23 27 29 28 30 35 35
25 33 35 38 41 43 44 44 44 44 43 38 35 33 28 36 35 37 40 38 41 37 36 36 34 37 35 33 35 34 30 24 22 21 20 20 30 26 26 20 25 29 29 29 31 31 31
24 24 32 36 37 40 43 45 45 45 45 43 38 35 32 29 33 37 39 43 42 40 37 39 36 31 32 34 30 30 26 27 25 20 22 21 28 26 33 29 27 31 30 30 29 27 29
26 23 25 34 38 38 41 43 46 48 44 40 37 37 28 33 28 33 38 40 40 40 33 34 35 37 35 33 28 22 19 20 20 21 22 22 26 30 38 31 32 37 32 31 33 31 30
27 25 21 30 40 39 39 42 44 47 48 44 37 30 41 36 32 29 30 37 38 38 36 34 30 31 32 18 18 20 22 23 26 27 24 25 24 25 29 25 37 29 22 20 22 25 27
27 26 22 26 39 40 38 41 44 46 47 47 42 37 32 42 34 23 27 29 35 40 42 38 40 40 13 15 23 26 26 26 30 29 23 19 18 23 27 29 28 28 18 18 21 26 22
26 25 23 20 41 38 37 40 41 42 44 48 46 43 34 34 42 29 27 25 29 35 38 39 31 28 16 20 23 28 25 21 23 25 20 21 20 24 24 28 31 27 22 18 17 30 22
24 24 24 20 38 34 36 40 39 40 42 47 45 46 35 38 26 18 27 27 24 30 35 33 29 27 23 15 25 27 28 22 24 21 16 19 19 23 25 26 25 27 19 13 23 25 17
24 23 24 18 28 30 40 40 37 37 41 44 48 43 40 29 29 31 21 26 20 20 26 29 27 34 23 26 27 25 26 24 26 23 17 21 22 23 24 26 29 21 14 18 19 18 16
23 23 22 16 27 39 38 36 34 37 41 41 43 34 32 32 28 25 18 17 17 12 18 18 25 30 32 32 32 29 30 26 23 28 26 24 22 21 22 23 19 23 23 15 17 18 19
Wind_Direction
284 284 281 280 274 274 274 276 276 277 278 280 282 284 288 291 294 297 300 302 304 306 308 310 312 313 318 311 306 328 323 324 323 323 325 321 322 322 313 317 320 311 314 319 313 319 318
284 284 284 284 283 281 278 275 275 276 277 279 280 282 285 288 292 295 298 300 303 306 307 308 309 310 309 301 318 324 319 314 317 322 321 325 325 320 313 318 318 328 311 312 313 315 315
279 280 281 283 281 283 283 284 285 278 279 280 280 281 282 287 287 292 297 300 303 304 305 307 309 311 301 298 306 310 315 309 316 324 321 327 323 322 319 323 324 318 313 310 302 303 310
279 278 279 279 280 282 283 282 286 286 285 283 282 285 286 285 289 294 296 299 299 300 302 306 304 305 296 302 298 301 303 311 317 323 323 327 324 320 320 311 317 317 314 310 300 283 319
277 278 278 278 279 280 279 279 281 283 283 281 283 284 286 290 291 294 297 298 299 299 301 302 303 304 295 308 300 300 295 297 307 315 319 323 325 317 320 315 315 301 309 298 341 288 322
279 277 277 277 276 276 279 280 279 280 283 280 283 284 285 288 291 293 296 299 298 298 297 297 294 295 291 290 305 310 310 301 302 312 310 312 316 308 306 296 299 322 273 310 315 302 304
282 281 278 278 276 275 276 275 279 281 277 279 281 283 286 289 293 293 296 297 294 290 284 277 291 286 304 299 305 300 302 304 296 296 289 294 295 288 295 286 288 309 311 316 308 328 316
284 284 282 281 278 275 275 277 280 278 272 271 276 280 279 293 296 298 295 290 294 298 287 280 277 275 278 294 293 289 298 288 277 277 282 290 281 288 291 307 297 297 299 298 296 295 304
283 284 284 283 281 278 274 274 277 277 277 276 274 274 277 282 289 290 289 290 302 306 287 283 275 272 269 267 271 276 279 275 275 275 268 269 306 299 288 292 292 291 293 295 296 297 303
282 281 282 282 283 281 278 276 275 276 274 275 274 274 276 279 280 281 286 288 297 306 285 283 280 275 253 263 271 258 257 268 270 271 275 277 272 285 288 287 288 290 294 294 293 296 293
280 280 280 280 280 280 278 278 278 276 275 273 273 273 276 267 285 274 285 286 288 300 278 298 272 293 273 233 295 268 250 248 252 262 275 273 281 273 276 282 286 289 296 295 294 294 294
279 278 278 278 279 278 278 275 275 276 275 270 272 276 278 270 272 278 287 277 283 277 271 287 281 276 277 250 256 290 273 250 261 263 270 273 281 280 280 285 285 293 295 295 293 293 288
277 277 276 276 276 277 276 276 273 272 270 268 268 273 276 271 266 278 269 260 267 264 280 272 273 277 274 270 256 268 279 261 245 257 261 271 266 278 281 284 290 286 290 291 289 286 290
279 276 274 274 274 274 275 274 272 269 267 265 266 268 274 265 269 280 250 256 260 267 263 289 275 276 273 273 270 264 274 269 253 254 277 266 269 260 267 272 280 280 274 283 290 290 296
280 279 276 274 272 271 270 272 270 268 264 261 264 266 266 263 257 264 249 249 255 264 272 267 277 273 273 271 276 267 269 270 266 255 263 283 274 283 257 268 271 277 274 282 288 291 293
278 277 275 274 272 270 267 266 267 266 263 258 259 264 262 259 250 253 248 250 257 261 268 275 269 272 273 269 266 274 274 278 269 262 258 275 285 285 283 283 272 268 302 284 287 290 289
276 275 274 273 271 269 265 263 262 262 260 254 254 262 264 245 242 248 249 256 256 262 268 269 270 270 264 270 270 268 275 276 275 272 258 267 279 283 283 276 274 272 274 283 289 283 293
275 274 273 272 270 268 265 261 258 257 256 250 249 254 257 225 237 248 250 247 256 262 263 275 279 276 273 266 273 268 270 268 282 271 265 262 282 276 273 290 276 278 273 274 283 289 291
274 273 271 270 267 266 263 260 254 251 247 250 251 251 247 236 239 245 248 251 252 256 257 269 272 269 275 276 272 272 272 288 287 274 273 268 275 274 278 281 286 281 285 278 280 285 285
274 272 270 269 267 263 260 257 251 247 245 242 253 247 252 243 239 237 247 247 251 250 256 259 267 273 270 270 272 274 272 282 282 282 281 280 276 273 274 276 288 283 283 282 283 282 288
258 269 268 267 266 262 257 253 248 245 241 238 246 254 245 238 240 241 240 251 247 249 247 253 264 264 269 269 270 269 278 278 281 278 278 276 275 280 281 287 289 286 287 290 282 286 283
238 253 264 264 264 262 256 249 245 241 238 237 244 245 252 247 244 238 241 246 251 250 248 247 254 261 263 264 270 274 275 278 276 275 274 278 277 279 279 282 287 282 281 284 287 290 290
230 232 253 259 259 260 255 247 242 238 234 241 243 245 257 241 238 241 240 243 245 251 250 250 249 257 262 267 278 277 268 280 286 281 274 280 281 278 277 282 285 283 280 281 283 285 291
223 221 232 255 253 254 253 245 242 237 235 238 243 249 240 249 247 234 242 244 244 250 252 255 254 254 259 268 281 281 278 276 276 277 279 280 279 283 280 284 279 289 293 286 288 290 295
214 212 216 247 248 248 250 245 241 238 236 236 239 243 247 243 254 233 243 248 244 247 249 251 252 255 225 251 266 271 275 275 273 271 276 261 268 283 281 280 290 294 305 294 292 294 303
205 204 205 222 242 246 247 242 239 238 236 233 235 237 253 245 244 255 254 245 247 243 249 248 258 263 265 264 255 262 269 276 282 280 254 258 267 275 282 281 283 292 300 310 309 293 306
195 194 193 205 239 245 243 237 238 239 234 232 235 231 245 234 250 253 252 247 245 248 248 250 259 262 256 251 249 260 266 273 281 278 265 261 258 263 274 282 290 292 311 314 293 306 320
184 184 184 201 241 245 232 232 237 240 233 229 230 228 234 240 240 246 269 250 264 253 250 251 251 243 250 255 261 270 273 273 269 275 272 266 272 274 277 279 285 301 299 285 305 316 318
174 175 175 198 237 224 226 232 240 236 230 221 221 227 231 237 246 251 255 274 288 275 250 258 255 256 260 268 270 272 267 267 269 268 269 265 273 276 281 282 292 306 309 292 308 311 314